Погода в Свободном

Россия / Саратовская область     52°19′51″N   46°22′02″E
В апреле 2022 года жителям России запретили посещать сайт meteo.paraplan.net по решению Генеральной прокуратуры. Аудитория сайта уменьшилась в 10 раз. Владельцы сайта не видят смысла в поддержке погодного сервера в таких условиях. Сайт будет закрыт в октябре.
темп.,
°C
ветер,
м/с
пор.,
м/с
влажн.,
%
обл.,
%
осадки,
мм/ч
давл.,
гПа
погр.,
м
4 октября, вт
вт401:00+11ююв61194100 0.1 1017589
04:00+11юв5995100 0.3 1018496
07:00+11юв4897100 0.1 1019425
10:00+12юв5986100 0.1 1020566
13:00+14ююв6116766 0.1 1020921
16:00+14ююв81251100 0.1 1020775
19:00+10юв71394100 2.6 1022856
22:00+9ююв71487100 5.8 1022818
5 октября, ср
ср501:00+9ююв61490100 0.9 1021798
04:00+9ююв51282100 1.0 1021504
07:00+9ююв598590 0.0 1021321
10:00+11ююв5785100 0.0 1021327
13:00+13ю5780100 0.0 1020536
16:00+13ю4889100 0.4 1019501
19:00+11ююз3894100 0.7 1020237
22:00+10юз4117381 0.8 1019303
6 октября, чт
чт601:00+8зюз310845 0.0 1019299
04:00+7зюз411855 0.0 1019359
07:00+7з488559 0.0 1019557
10:00+8з587885 0.0 1019815
13:00+10зсз6862100 0.3 10191489
16:00+9зсз686497 0.6 10201274
19:00+7зсз377352 0.1 1021246
22:00+6з3583100 0.1 1021143
7 октября, пт
пт701:00+6з36915 0.1 1021148
04:00+5з239132 0.1 102261
07:00+6юз3594100 0.0 1021123
10:00+8юз41093100 0.1 1020359
13:00+13зюз7107346 0.0 1019886
16:00+15зсз7106383 0.0 10181251
19:00+11сз5118534 0.0 1020355
22:00+12сз6967100 0.0 1021545
8 октября, сб
сб801:00+11сз8126398 0.0 10221183
04:00+8зсз48720 0.0 1023240
07:00+7зсз410820 0.0 1025261
10:00+10сз57710 0.0 1026426
13:00+14зсз45540 0.0 1026817
16:00+14зсз44480 0.0 1026908
19:00+10зсз22630 0.0 102611
22:00+9зюз11675 0.0 102711